TimeCST,TemperatureF,Dew PointF,Humidity,Sea Level PressureIn,VisibilityMPH,Wind Direction,Wind SpeedMPH,Gust SpeedMPH,PrecipitationIn,Events,Conditions,WindDirDegrees,DateUTC
12:58 AM,24.6,11.3,57,30.21,10.0,NW,12.7,19.6,N/A,,Clear,310,2014-01-15 06:58:00
1:58 AM,23.7,10.9,58,30.22,10.0,NW,8.1,-,N/A,,Clear,320,2014-01-15 07:58:00
2:58 AM,22.6,11.1,61,30.23,10.0,WNW,10.4,-,N/A,,Clear,300,2014-01-15 08:58:00
3:58 AM,21.6,10.4,62,30.23,10.0,WNW,10.4,-,N/A,,Partly Cloudy,300,2014-01-15 09:58:00
4:58 AM,20.7,9.7,63,30.24,10.0,WNW,11.5,-,N/A,,Clear,300,2014-01-15 10:58:00
5:58 AM,19.2,9.7,66,30.25,10.0,NW,12.7,-,N/A,,Clear,310,2014-01-15 11:58:00
6:58 AM,18.5,9.0,66,30.25,10.0,NW,9.2,-,N/A,,Clear,310,2014-01-15 12:58:00
7:58 AM,18.0,9.1,68,30.25,10.0,WNW,10.4,-,N/A,,Clear,300,2014-01-15 13:58:00
8:58 AM,20.1,10.0,65,30.27,10.0,NW,10.4,-,N/A,,Partly Cloudy,310,2014-01-15 14:58:00
9:58 AM,22.5,9.5,58,30.29,10.0,NW,9.2,-,N/A,,Clear,310,2014-01-15 15:58:00
10:58 AM,23.9,8.8,53,30.27,10.0,NNW,4.6,-,N/A,,Partly Cloudy,340,2014-01-15 16:58:00
11:58 AM,26.4,6.8,43,30.25,10.0,WNW,8.1,-,N/A,,Partly Cloudy,290,2014-01-15 17:58:00
12:58 PM,28.0,6.4,40,30.20,10.0,WNW,5.8,-,N/A,,Clear,300,2014-01-15 18:58:00
1:58 PM,30.0,6.1,36,30.18,10.0,WSW,5.8,-,N/A,,Partly Cloudy,250,2014-01-15 19:58:00
2:58 PM,31.1,5.4,34,30.15,10.0,West,11.5,-,N/A,,Scattered Clouds,270,2014-01-15 20:58:00
3:58 PM,31.8,4.1,31,30.13,10.0,WSW,8.1,-,N/A,,Partly Cloudy,240,2014-01-15 21:58:00
4:58 PM,29.1,5.4,37,30.10,10.0,SSW,10.4,-,N/A,,Clear,210,2014-01-15 22:58:00
5:58 PM,25.2,10.0,53,30.09,10.0,South,8.1,-,N/A,,Mostly Cloudy,180,2014-01-15 23:58:00
6:58 PM,25.9,11.5,55,30.06,10.0,SSW,9.2,-,N/A,,Mostly Cloudy,200,2014-01-16 00:58:00
7:58 PM,27.7,12.7,54,30.01,10.0,SSW,10.4,-,N/A,,Mostly Cloudy,200,2014-01-16 01:58:00
8:58 PM,29.3,13.6,52,29.97,10.0,South,13.8,-,N/A,,Mostly Cloudy,190,2014-01-16 02:58:00
9:58 PM,31.1,17.1,56,29.93,10.0,SSW,16.1,-,N/A,,Mostly Cloudy,200,2014-01-16 03:58:00
10:58 PM,32.5,18.5,56,29.90,10.0,SSW,17.3,-,N/A,,Mostly Cloudy,210,2014-01-16 04:58:00
11:58 PM,34.0,20.1,57,29.87,10.0,SW,12.7,-,N/A,,Mostly Cloudy,220,2014-01-16 05:58:00